Weather History for Jackson, MN

Change the Weather History Date:

Tuesday, October 23, 2012

  Actual Average Record
Temperature  
Mean Temperature 58 °F -  
Max Temperature 62 °F 53 °F 73 °F (2007)
Min Temperature 55 °F 35 °F 21 °F (2002)
Degree Days  
Heating Degree Days 6    
Growing Degree Days 8 (Base 50)    
Moisture  
Dew Point 55 °F    
Average Humidity 86    
Maximum Humidity 94    
Minimum Humidity 77    
Precipitation  
Precipitation 0.00 in - - ()
Sea Level Pressure  
Sea Level Pressure 29.74 in    
Wind  
Wind Speed 7 mph (South)    
Max Wind Speed 15 mph    
Max Gust Speed 20 mph    
Visibility 4 miles    
Events Fog , Thunderstorm    
Averages and records for this station are not official NWS values.
T = Trace of Precipitation, MM = Missing Value Source: NWS Daily Summary

Daily Weather History Graph

Daily Weather History Graph

Search for Another Location

Airport:

Trip Planner

Search our weather history database for the weather conditions in past years. The results will help you decide how hot, cold, wet, or windy it might be!

Date:

Astronomy

Oct. 23, 2012 Rise Set
Actual Time 7:44 AM CDT 6:22 PM CDT
Civil Twilight 7:15 AM CDT 6:52 PM CDT
Nautical Twilight 6:41 AM CDT 7:25 PM CDT
Astronomical Twilight 6:08 AM CDT 7:58 PM CDT
Moon 3:16 PM CDT (10/23) 1:26 AM CDT (10/23)
Length of Visible Light 11h 36m
Length of Day
10h 38m
Waxing Gibbous, 67% of the Moon is Illuminated
Oct 23
Waxing Gibbous
Oct 29
Full
Nov 6
Last Quarter
Nov 13
New
Nov 20
First Quarter

Hourly Weather History & Observations

Time (CDT) Temp. Dew Point Humidity Pressure Visibility Wind Dir Wind Speed Gust Speed Precip Events Conditions
12:13 AM 57.2 °F 51.8 °F 82% 29.79 in 5.0 mi NE 8.1 mph - N/A   Haze
12:34 AM 57.2 °F 51.8 °F 82% 29.79 in 5.0 mi ENE 6.9 mph - N/A   Haze
1:13 AM 57.2 °F 53.6 °F 88% 29.78 in 3.0 mi ENE 5.8 mph - N/A   Overcast
1:34 AM 57.2 °F 53.6 °F 88% 29.78 in 2.5 mi ENE 3.5 mph - N/A   Overcast
1:53 AM 57.2 °F 53.6 °F 88% 29.77 in 1.0 mi NE 3.5 mph - N/A   Overcast
2:13 AM 57.2 °F 55.4 °F 94% 29.76 in 0.2 mi ENE 6.9 mph - N/A Fog Fog
2:33 AM 57.2 °F 55.4 °F 94% 29.75 in 0.2 mi ENE 4.6 mph - N/A Fog Fog
2:53 AM 59.0 °F 55.4 °F 88% 29.73 in 0.2 mi East 6.9 mph - N/A Fog , Thunderstorm Fog
3:33 AM 60.8 °F 59.0 °F 94% 29.73 in 0.2 mi ESE 6.9 mph - N/A Fog Fog
3:53 AM 60.8 °F 59.0 °F 94% 29.72 in 0.2 mi ESE 6.9 mph - N/A Fog Fog
4:14 AM 60.8 °F 59.0 °F 94% 29.73 in 0.2 mi ESE 8.1 mph - N/A Fog Fog
4:33 AM 62.6 °F 59.0 °F 88% 29.72 in 0.2 mi ESE 5.8 mph - N/A Fog Fog
5:14 AM 62.6 °F 59.0 °F 88% 29.71 in 1.0 mi ESE 5.8 mph - N/A   Overcast
5:33 AM 62.6 °F 59.0 °F 88% 29.71 in 1.2 mi ESE 4.6 mph - N/A   Overcast
5:53 AM 62.6 °F 59.0 °F 88% 29.71 in 2.0 mi South 5.8 mph - N/A   Overcast
6:33 AM 60.8 °F 59.0 °F 94% 29.72 in 1.8 mi Calm Calm - N/A   Overcast
6:53 AM 60.8 °F 59.0 °F 94% 29.71 in 1.5 mi SSE 3.5 mph - N/A   Overcast
7:13 AM 60.8 °F 59.0 °F 94% 29.71 in 1.0 mi SSE 5.8 mph - N/A   Overcast
7:33 AM 60.8 °F 59.0 °F 94% 29.71 in 1.0 mi SSE 5.8 mph - N/A   Overcast
7:53 AM 60.8 °F 57.2 °F 88% 29.72 in 0.8 mi SSW 10.4 mph - N/A   Overcast
8:13 AM 59.0 °F 55.4 °F 88% 29.73 in 0.8 mi SSW 12.7 mph - N/A   Overcast
8:33 AM 57.2 °F 55.4 °F 94% 29.73 in 1.2 mi SSW 11.5 mph - N/A   Overcast
8:53 AM 57.2 °F 53.6 °F 88% 29.73 in 1.2 mi SSW 12.7 mph 16.1 mph N/A   Overcast
9:13 AM 55.4 °F 53.6 °F 94% 29.73 in 1.5 mi SSW 11.5 mph - N/A   Overcast
9:33 AM 55.4 °F 53.6 °F 94% 29.73 in 1.0 mi South 15.0 mph 19.6 mph N/A   Overcast
9:53 AM 57.2 °F 53.6 °F 88% 29.74 in 1.0 mi SSW 13.8 mph - N/A   Overcast
10:13 AM 57.2 °F 53.6 °F 88% 29.74 in 1.2 mi SSW 13.8 mph - N/A   Overcast
10:53 AM 57.2 °F 53.6 °F 88% 29.75 in 1.2 mi SSW 12.7 mph - N/A   Overcast
11:13 AM 57.2 °F 53.6 °F 88% 29.74 in 1.5 mi SSW 13.8 mph - N/A   Overcast
11:33 AM 57.2 °F 53.6 °F 88% 29.75 in 1.8 mi SSW 12.7 mph - N/A   Overcast
11:53 AM 57.2 °F 53.6 °F 88% 29.74 in 1.8 mi SSW 15.0 mph 18.4 mph N/A   Overcast
12:13 PM 59.0 °F 53.6 °F 82% 29.73 in 2.0 mi South 11.5 mph - N/A   Overcast
12:33 PM 59.0 °F 55.4 °F 88% 29.73 in 2.0 mi SSW 9.2 mph - N/A   Overcast
12:53 PM 57.2 °F 53.6 °F 88% 29.73 in 1.8 mi South 12.7 mph - N/A   Overcast
1:33 PM 57.2 °F 53.6 °F 88% 29.72 in 2.5 mi SSW 11.5 mph - N/A   Overcast
1:53 PM 59.0 °F 53.6 °F 82% 29.71 in 3.0 mi SSW 10.4 mph - N/A   Overcast
2:14 PM 57.2 °F 53.6 °F 88% 29.71 in 5.0 mi SSW 15.0 mph - N/A   Overcast
2:33 PM 59.0 °F 53.6 °F 82% 29.71 in 7.0 mi SSW 15.0 mph - N/A   Overcast
2:53 PM 59.0 °F 53.6 °F 82% 29.70 in 7.0 mi SSW 15.0 mph - N/A   Overcast
3:14 PM 59.0 °F 53.6 °F 82% 29.70 in 7.0 mi SW 10.4 mph - N/A   Overcast
3:33 PM 60.8 °F 53.6 °F 77% 29.70 in 7.0 mi SSW 9.2 mph - N/A   Mostly Cloudy
3:53 PM 60.8 °F 53.6 °F 77% 29.71 in 10.0 mi SSW 12.7 mph - N/A   Overcast
4:13 PM 60.8 °F 53.6 °F 77% 29.71 in 7.0 mi SW 12.7 mph - N/A   Overcast
4:33 PM 60.8 °F 53.6 °F 77% 29.71 in 7.0 mi SSW 8.1 mph - N/A   Overcast
4:53 PM 60.8 °F 53.6 °F 77% 29.70 in 10.0 mi SSW 6.9 mph - N/A   Overcast
5:13 PM 60.8 °F 53.6 °F 77% 29.71 in 7.0 mi SSW 6.9 mph - N/A   Overcast
5:33 PM 60.8 °F 53.6 °F 77% 29.72 in 7.0 mi SSW 5.8 mph - N/A   Overcast
6:13 PM 60.8 °F 53.6 °F 77% 29.74 in 7.0 mi WSW 4.6 mph - N/A   Overcast
6:33 PM 60.8 °F 53.6 °F 77% 29.74 in 7.0 mi WSW 3.5 mph - N/A   Overcast
6:53 PM 60.8 °F 53.6 °F 77% 29.73 in 7.0 mi Calm Calm - N/A   Overcast
7:14 PM 59.0 °F 53.6 °F 82% 29.74 in 7.0 mi Calm Calm - N/A   Overcast
7:33 PM 59.0 °F 53.6 °F 82% 29.74 in 7.0 mi West 3.5 mph - N/A   Overcast
7:53 PM 59.0 °F 53.6 °F 82% 29.75 in 5.0 mi SE 4.6 mph - N/A   Mostly Cloudy
8:13 PM 57.2 °F 53.6 °F 88% 29.75 in 5.0 mi SE 5.8 mph - N/A   Scattered Clouds
8:33 PM 57.2 °F 53.6 °F 88% 29.76 in 5.0 mi South 5.8 mph - N/A   Scattered Clouds
8:54 PM 57.2 °F 53.6 °F 88% 29.77 in 5.0 mi South 3.5 mph - N/A   Mostly Cloudy
9:13 PM 57.2 °F 53.6 °F 88% 29.78 in 5.0 mi WSW 3.5 mph - N/A   Overcast
9:33 PM 57.2 °F 53.6 °F 88% 29.79 in 5.0 mi Calm Calm - N/A   Overcast
9:53 PM 57.2 °F 53.6 °F 88% 29.80 in 5.0 mi WNW 3.5 mph - N/A   Overcast
10:13 PM 57.2 °F 53.6 °F 88% 29.80 in 5.0 mi Calm Calm - N/A   Overcast
10:34 PM 57.2 °F 53.6 °F 88% 29.81 in 3.0 mi NW 6.9 mph - N/A   Overcast
10:53 PM 57.2 °F 53.6 °F 88% 29.81 in 4.0 mi NW 4.6 mph - N/A   Overcast
11:34 PM 57.2 °F 53.6 °F 88% 29.80 in 4.0 mi Calm Calm - N/A   Overcast
11:53 PM 57.2 °F 53.6 °F 88% 29.81 in 5.0 mi NNW 3.5 mph - N/A   Overcast